TimeCDT,TemperatureF,Dew PointF,Humidity,Sea Level PressureIn,VisibilityMPH,Wind Direction,Wind SpeedMPH,Gust SpeedMPH,PrecipitationIn,Events,Conditions,WindDirDegrees,DateUTC
12:53 AM,39.9,30.9,70,30.28,10.0,North,8.1,-,N/A,,Clear,360,2012-10-06 05:53:00
1:53 AM,41.0,30.9,67,30.30,10.0,North,8.1,-,N/A,,Clear,360,2012-10-06 06:53:00
2:53 AM,42.1,32.0,67,30.29,10.0,NNE,10.4,-,N/A,,Clear,30,2012-10-06 07:53:00
3:53 AM,43.0,30.9,62,30.27,10.0,NNE,8.1,-,N/A,,Clear,30,2012-10-06 08:53:00
4:53 AM,43.0,32.0,65,30.26,10.0,ENE,6.9,-,N/A,,Mostly Cloudy,60,2012-10-06 09:53:00
5:53 AM,44.1,32.0,63,30.26,10.0,NE,6.9,-,N/A,,Overcast,40,2012-10-06 10:53:00
6:53 AM,45.0,32.0,60,30.27,10.0,NE,6.9,-,N/A,,Overcast,50,2012-10-06 11:53:00
7:53 AM,45.0,32.0,60,30.29,10.0,NNE,4.6,-,N/A,,Overcast,30,2012-10-06 12:53:00
8:53 AM,46.9,32.0,56,30.31,10.0,NNE,4.6,-,N/A,,Overcast,30,2012-10-06 13:53:00
9:53 AM,46.9,32.0,56,30.33,10.0,NNE,10.4,-,N/A,,Overcast,30,2012-10-06 14:53:00
10:53 AM,48.0,28.0,46,30.35,10.0,NE,12.7,-,N/A,,Overcast,50,2012-10-06 15:53:00
11:53 AM,48.0,30.0,50,30.35,10.0,NNE,11.5,-,N/A,,Overcast,30,2012-10-06 16:53:00
12:53 PM,48.0,33.1,56,30.32,10.0,ENE,11.5,-,0.00,Rain,Light Rain,60,2012-10-06 17:53:00
1:53 PM,50.0,27.0,41,30.30,10.0,NE,11.5,-,0.00,,Overcast,40,2012-10-06 18:53:00
2:53 PM,50.0,26.1,39,30.28,10.0,NE,12.7,-,N/A,,Overcast,50,2012-10-06 19:53:00
3:53 PM,51.1,28.0,41,30.27,10.0,NE,15.0,-,N/A,,Overcast,40,2012-10-06 20:53:00
4:53 PM,48.9,28.0,44,30.28,10.0,NE,13.8,-,N/A,,Overcast,40,2012-10-06 21:53:00
5:53 PM,48.9,27.0,43,30.29,10.0,ENE,9.2,-,N/A,,Overcast,60,2012-10-06 22:53:00
6:53 PM,48.9,27.0,43,30.30,10.0,ENE,5.8,-,N/A,,Overcast,60,2012-10-06 23:53:00
7:53 PM,46.9,27.0,46,30.31,10.0,NNE,13.8,-,N/A,,Overcast,20,2012-10-07 00:53:00
8:53 PM,46.0,28.0,50,30.33,10.0,NNE,6.9,-,N/A,,Overcast,20,2012-10-07 01:53:00
9:53 PM,41.0,28.0,60,30.34,10.0,NNW,4.6,-,N/A,,Clear,340,2012-10-07 02:53:00
11:53 PM,39.9,28.9,65,30.35,10.0,NNW,3.5,-,N/A,,Clear,340,2012-10-07 04:53:00